Thomson, GA

9:43 AM EDT on April 24, 2018 (GMT -0400)
Thomson-McDuffie County

Weather History for KHQU - January, 2014

Change the Weather History Date:

Sunday, January 12, 2014

  Actual Average (KDNL) Record (KDNL)
Temperature  
Mean Temperature 46 °F -  
Max Temperature 58 °F 54 °F 78 °F (2013)
Min Temperature 34 °F 36 °F 27 °F (2011)
Degree Days  
Heating Degree Days 19    
Moisture  
Dew Point 40 °F    
Average Humidity 79    
Maximum Humidity 100    
Minimum Humidity 50    
Precipitation  
Precipitation 0.00 in - - ()
Sea Level Pressure  
Sea Level Pressure 30.15 in    
Wind  
Wind Speed 5 mph (West)    
Max Wind Speed 14 mph    
Max Gust Speed -    
Visibility 10 miles    
Events      
Averages and records for this station are not official NWS values.
T = Trace of Precipitation, MM = Missing Value Source: NWS Daily Summary

Daily Weather History Graph

Daily Weather History Graph

Search for Another Location

Airport or City:

Astronomy

Jan. 12, 2014 Rise Set
Actual Time 7:34 AM EST 5:42 PM EST
Civil Twilight 7:07 AM EST 6:09 PM EST
Nautical Twilight 6:37 AM EST 6:40 PM EST
Astronomical Twilight 6:07 AM EST 7:10 PM EST
Moon 3:08 PM EST (1/12) 4:33 AM EST (1/12)
Length of Visible Light 11h 01m
Length of Day
10h 07m
Waxing Gibbous, 89% of the Moon is Illuminated
Jan 12
Waxing Gibbous
Jan 15
Full
Jan 24
Last Quarter
Jan 30
New
Feb 6
First Quarter

Hourly Weather History & Observations

Time (EST) Temp. Windchill Dew Point Humidity Pressure Visibility Wind Dir Wind Speed Gust Speed Precip Events Conditions
12:15 AM 50.2 °F - 42.1 °F 74% 29.93 in 10.0 mi West 8.1 mph - N/A   Clear
12:35 AM 50.0 °F - 41.7 °F 73% 29.94 in 10.0 mi West 5.8 mph - N/A   Clear
12:55 AM 49.3 °F - 41.5 °F 75% 29.94 in 10.0 mi West 8.1 mph - N/A   Clear
1:15 AM 48.9 °F - 41.5 °F 76% 29.95 in 10.0 mi West 6.9 mph - N/A   Clear
1:35 AM 48.6 °F - 41.5 °F 77% 29.96 in 10.0 mi West 9.2 mph - N/A   Clear
1:55 AM 48.2 °F - 41.4 °F 77% 29.97 in 10.0 mi West 9.2 mph - N/A   Clear
2:15 AM 47.5 °F - 41.4 °F 79% 29.98 in 10.0 mi West 6.9 mph - N/A   Clear
2:35 AM 47.1 °F - 41.2 °F 80% 29.99 in 10.0 mi West 9.2 mph - N/A   Clear
2:55 AM 46.6 °F - 41.0 °F 81% 30.00 in 10.0 mi West 6.9 mph - N/A   Clear
3:15 AM 46.4 °F 42.9 °F 41.0 °F 81% 30.01 in 10.0 mi West 6.9 mph - N/A   Clear
3:35 AM 46.4 °F 42.4 °F 40.5 °F 80% 30.03 in 10.0 mi West 8.1 mph - N/A   Clear
3:55 AM 45.5 °F 44.2 °F 40.1 °F 81% 30.03 in 10.0 mi West 3.5 mph - N/A   Clear
4:15 AM 43.9 °F 40.5 °F 40.1 °F 87% 30.04 in 10.0 mi West 5.8 mph - N/A   Clear
4:35 AM 43.9 °F - 39.7 °F 85% 30.05 in 10.0 mi Calm Calm - N/A   Clear
4:55 AM 42.6 °F 40.9 °F 39.4 °F 88% 30.06 in 10.0 mi West 3.5 mph - N/A   Clear
5:15 AM 41.9 °F 40.0 °F 39.2 °F 90% 30.06 in 10.0 mi West 3.5 mph - N/A   Clear
5:35 AM 40.1 °F 38.0 °F 38.8 °F 95% 30.07 in 10.0 mi West 3.5 mph - N/A   Clear
5:55 AM 39.6 °F - 38.5 °F 96% 30.08 in 10.0 mi Calm Calm - N/A   Clear
6:15 AM 38.7 °F 36.3 °F 38.3 °F 99% 30.08 in 10.0 mi West 3.5 mph - N/A   Clear
6:35 AM 38.3 °F 35.9 °F 38.1 °F 99% 30.09 in 10.0 mi West 3.5 mph - N/A   Clear
6:55 AM 37.6 °F - 37.6 °F 100% 30.09 in 10.0 mi Calm Calm - N/A   Clear
7:15 AM 37.0 °F - 37.0 °F 100% 30.11 in 10.0 mi Calm Calm - N/A   Clear
7:35 AM 37.4 °F - 37.0 °F 99% 30.13 in 10.0 mi Calm Calm - N/A   Clear
7:55 AM 37.8 °F - 37.6 °F 99% 30.13 in 10.0 mi Calm Calm - N/A   Clear
8:15 AM 39.7 °F - 38.3 °F 95% 30.16 in 10.0 mi Calm Calm - N/A   Clear
8:35 AM 41.0 °F 39.0 °F 38.7 °F 91% 30.17 in 10.0 mi West 3.5 mph - N/A   Clear
8:55 AM 42.8 °F 39.3 °F 39.7 °F 89% 30.18 in 10.0 mi West 5.8 mph - N/A   Clear
9:15 AM 44.4 °F 41.2 °F 40.3 °F 85% 30.20 in 10.0 mi West 5.8 mph - N/A   Clear
9:35 AM 45.7 °F 43.4 °F 40.5 °F 82% 30.21 in 10.0 mi West 4.6 mph - N/A   Clear
9:55 AM 47.3 °F - 40.8 °F 78% 30.22 in 10.0 mi WSW 8.1 mph - N/A   Clear
10:15 AM 48.9 °F - 41.7 °F 76% 30.23 in 10.0 mi West 5.8 mph - N/A   Clear
10:35 AM 50.2 °F - 41.2 °F 71% 30.23 in 10.0 mi WNW 6.9 mph - N/A   Clear
10:55 AM 51.6 °F - 40.8 °F 67% 30.23 in 10.0 mi West 6.9 mph - N/A   Clear
11:15 AM 52.2 °F - 40.1 °F 64% 30.23 in 10.0 mi West 6.9 mph - N/A   Clear
11:35 AM 54.0 °F - 40.1 °F 59% 30.22 in 10.0 mi West 5.8 mph - N/A   Clear
11:55 AM 54.7 °F - 39.6 °F 57% 30.21 in 10.0 mi WNW 10.4 mph - N/A   Clear
12:15 PM 54.9 °F - 40.1 °F 58% 30.21 in 10.0 mi WNW 11.5 mph - N/A   Clear
12:35 PM 55.4 °F - 39.6 °F 55% 30.20 in 10.0 mi WNW 13.8 mph - N/A   Clear
12:55 PM 55.9 °F - 40.1 °F 55% 30.19 in 10.0 mi WNW 11.5 mph - N/A   Clear
1:15 PM 56.5 °F - 40.3 °F 55% 30.19 in 10.0 mi West 9.2 mph - N/A   Clear
1:35 PM 56.8 °F - 40.1 °F 54% 30.18 in 10.0 mi West 12.7 mph - N/A   Clear
1:55 PM 57.4 °F - 40.8 °F 54% 30.18 in 10.0 mi WSW 6.9 mph - N/A   Clear
2:15 PM 58.1 °F - 39.9 °F 51% 30.18 in 10.0 mi WSW 6.9 mph - N/A   Clear
2:35 PM 57.9 °F - 40.6 °F 53% 30.17 in 10.0 mi West 8.1 mph - N/A   Clear
2:55 PM 58.3 °F - 40.3 °F 51% 30.17 in 10.0 mi WNW 8.1 mph - N/A   Clear
3:15 PM 58.3 °F - 39.9 °F 50% 30.17 in 10.0 mi West 6.9 mph - N/A   Clear
3:35 PM 58.3 °F - 40.6 °F 52% 30.17 in 10.0 mi West 4.6 mph - N/A   Clear
3:55 PM 58.1 °F - 39.7 °F 50% 30.17 in 10.0 mi WNW 5.8 mph - N/A   Clear
4:15 PM 58.1 °F - 40.8 °F 53% 30.18 in 10.0 mi West 6.9 mph - N/A   Clear
4:35 PM 57.9 °F - 40.3 °F 52% 30.18 in 10.0 mi West 3.5 mph - N/A   Clear
4:55 PM 57.4 °F - 40.6 °F 54% 30.18 in 10.0 mi Calm Calm - N/A   Clear
5:15 PM 55.8 °F - 41.2 °F 58% 30.19 in 10.0 mi Calm Calm - N/A   Clear
5:35 PM 53.6 °F - 41.7 °F 64% 30.19 in 10.0 mi West 3.5 mph - N/A   Clear
5:55 PM 49.5 °F - 41.9 °F 75% 30.20 in 10.0 mi Calm Calm - N/A   Clear
6:15 PM 47.3 °F - 41.9 °F 82% 30.20 in 10.0 mi Calm Calm - N/A   Clear
6:35 PM 45.9 °F - 41.4 °F 84% 30.21 in 10.0 mi Calm Calm - N/A   Clear
6:55 PM 43.3 °F - 40.5 °F 90% 30.22 in 10.0 mi Calm Calm - N/A   Clear
7:15 PM 42.8 °F - 40.8 °F 93% 30.22 in 10.0 mi Calm Calm - N/A   Clear
7:35 PM 41.7 °F - 40.5 °F 95% 30.23 in 10.0 mi Calm Calm - N/A   Clear
7:55 PM 41.2 °F - 40.5 °F 97% 30.23 in 10.0 mi Calm Calm - N/A   Clear
8:15 PM 39.7 °F - 39.7 °F 100% 30.24 in 10.0 mi Calm Calm - N/A   Clear
8:35 PM 39.4 °F - 39.4 °F 100% 30.24 in 10.0 mi Calm Calm - N/A   Clear
8:55 PM 38.8 °F - 38.8 °F 100% 30.24 in 10.0 mi Calm Calm - N/A   Clear
9:15 PM 37.0 °F - 37.0 °F 100% 30.24 in 10.0 mi Calm Calm - N/A   Clear
9:35 PM 37.4 °F - 37.4 °F 100% 30.24 in 10.0 mi Calm Calm - N/A   Clear
9:55 PM 37.2 °F - 37.2 °F 100% 30.24 in 10.0 mi Calm Calm - N/A   Clear
10:15 PM 36.5 °F - 36.5 °F 100% 30.23 in 10.0 mi Calm Calm - N/A   Clear
10:35 PM 34.5 °F - 34.5 °F 100% 30.24 in 10.0 mi Calm Calm - N/A   Clear
10:55 PM 35.6 °F - 35.6 °F 100% 30.23 in 10.0 mi Calm Calm - N/A   Clear
11:15 PM 35.4 °F - 35.4 °F 100% 30.23 in 10.0 mi Calm Calm - N/A   Clear
11:35 PM 34.9 °F - 34.9 °F 100% 30.23 in 10.0 mi Calm Calm - N/A   Clear
11:55 PM 34.2 °F - 34.2 °F 100% 30.22 in 10.0 mi Calm Calm - N/A   Clear